Location: Moscow
(55.7500°N, 37.5830°E)
Time: 02:51:52
(UTC+03:00)

Transit 2A Rocket - Visible Passes

Search period start: 30 November 2021 00:00
Search period end: 10 December 2021 00:00
Orbit: 584 x 918 km, 66.7° (Epoch: 29 November)

Date Brightness Start Highest point End Pass type
(mag) Time Alt. Az. Time Alt. Az. Time Alt. Az.
30 Nov 6.1 17:30:25 10° NW 17:36:26 56° WSW 17:42:09 10° SSE visible
30 Nov 8.3 19:14:49 10° WNW 19:17:51 14° WSW 19:20:49 10° SW visible
01 Dec 5.6 16:47:38 10° NW 16:53:48 78° SW 16:59:42 10° SE visible
01 Dec 7.9 18:31:10 10° WNW 18:35:37 22° WSW 18:39:56 10° SSW visible
02 Dec 8.3 07:30:50 10° SSE 07:34:39 18° ESE 07:38:36 10° ENE visible
02 Dec 7.3 17:48:01 10° NW 17:53:18 31° WSW 17:58:22 10° S visible
03 Dec 8.7 06:50:32 10° ESE 06:52:29 12° E 06:54:28 10° E visible
03 Dec 6.7 17:05:05 10° NW 17:10:53 45° WSW 17:16:24 10° S visible
03 Dec 8.8 18:51:09 10° W 18:52:02 10° W 18:52:55 10° WSW visible
04 Dec 7.3 07:46:07 10° S 07:51:16 34° ESE 07:56:41 10° NE visible
04 Dec 8.4 18:06:16 10° WNW 18:09:54 17° WSW 18:13:25 10° SW visible
05 Dec 7.9 07:04:26 10° SSE 07:08:55 24° ESE 07:13:36 10° ENE visible
05 Dec 7.9 17:22:51 10° WNW 17:27:38 25° WSW 17:32:14 10° SSW visible
06 Dec 8.4 06:23:20 10° SE 06:26:41 16° ESE 06:30:08 10° ENE visible
06 Dec 7.2 16:39:48 10° NW 16:45:17 36° WSW 16:50:31 10° S visible
07 Dec 6.7 07:20:12 10° S 07:25:40 43° ESE 07:31:25 10° NE visible
07 Dec 8.6 17:41:48 10° WNW 17:44:07 12° W 17:46:22 10° WSW visible
08 Dec 7.4 06:38:16 10° S 06:43:15 30° ESE 06:48:27 10° NE visible
08 Dec 8.2 16:57:50 10° WNW 17:01:56 19° WSW 17:05:52 10° SSW visible
09 Dec 7.9 05:56:44 10° SSE 06:00:56 21° ESE 06:05:16 10° ENE visible
09 Dec 5.6 07:36:50 10° SSW 07:42:43 76° SE 07:48:52 10° NE visible
